Regional Weather Roundup
Issued by NWS Tiyan, Guam

Home | Current Version | Previous Version | Text Only | Print | Product List | Glossary On
Versions: 1 2 3 4 5 6 7 8 9 10 11 12 13 14 15 16 17 18 19 20 21 22 23 24 25 26 27 28 29 30 31 32 33 34 35 36 37 38 39 40 41 42 43 44 45 46 47 48 49 50
000
ASGM40 PGUM 220412
RWRGUM
WEATHER ROUNDUP FOR THE MARIANAS
NATIONAL WEATHER SERVICE TIYAN GU
200 PM CHST WED NOV 22 2017

GUZ001>004-220500-
MARIANA ISLANDS-

CITY           SKY/WX    TMP DP  RH WIND       PRES   REMARKS
GUAM AIRPORT   SUNNY     86  79  79 E17G24    29.78F HX  99
ANDERSEN AFB   MOSUNNY   84  75  74 E18       29.78F HX  92
ROTA AIRPORT   MOSUNNY   84  75  74 E18       29.79F HX  92
TINIAN AP      MOSUNNY   84  73  70 NE16      29.77F HX  91
SAIPAN AP      CLOUDY    88  75  66 E16G23    29.78F HX  97

$$




USA.gov is the U.S. government's official web portal to all federal, state and local government web resources and services.